• In Belarus
  • List of Countries
  • For 7 days
  • Water Temperature
  • Satellite Maps
  • Weather Map
  • Weather Widgets
  • user-avatar
    Login

    Hourly Weather Patmos

    Today, 21 September, Friday

    Time Temperature Precipitation Wind Pressure Humidity
    00:00 +22°C° 0 mm 6 mps 757 mmHg 70%
    01:00 +22°C° 0 mm 6 mps 757 mmHg 68%
    02:00 +22°C° 0 mm 6 mps 757 mmHg 67%
    03:00 +21°C° 0 mm 6 mps 757 mmHg 68%
    04:00 +21°C° 0 mm 6 mps 757 mmHg 68%
    05:00 +20°C° 0 mm 6 mps 757 mmHg 69%
    06:00 +22°C° 0 mm 6 mps 758 mmHg 64%
    07:00 +23°C° 0 mm 5 mps 758 mmHg 58%
    08:00 +27°C° 0 mm 5 mps 758 mmHg 49%
    09:00 +29°C° 0 mm 5 mps 758 mmHg 43%
    10:00 +32°C° 0 mm 5 mps 758 mmHg 37%
    11:00 +35°C° 0 mm 4 mps 758 mmHg 31%
    12:00 +35°C° 0 mm 5 mps 758 mmHg 30%
    13:00 +35°C° 0 mm 5 mps 758 mmHg 29%
    14:00 +36°C° 0 mm 6 mps 758 mmHg 29%
    15:00 +35°C° 0 mm 6 mps 758 mmHg 33%
    16:00 +33°C° 0 mm 6 mps 758 mmHg 37%
    17:00 +32°C° 0 mm 6 mps 758 mmHg 42%
    18:00 +29°C° 0 mm 6 mps 758 mmHg 52%
    19:00 +26°C° 0 mm 5 mps 758 mmHg 62%
    20:00 +23°C° 0 mm 5 mps 758 mmHg 72%
    21:00 +23°C° 0 mm 5 mps 758 mmHg 74%
    22:00 +22°C° 0 mm 5 mps 758 mmHg 76%
    23:00 +22°C° 0 mm 5 mps 758 mmHg 78%

    Tomorrow, 22 September, Saturday

    Time Temperature Precipitation Wind Pressure Humidity
    00:00 +22°C° 0 mm 5 mps 758 mmHg 78%
    01:00 +21°C° 0 mm 5 mps 759 mmHg 77%
    02:00 +21°C° 0 mm 5 mps 759 mmHg 77%
    03:00 +21°C° 0 mm 5 mps 758 mmHg 75%
    04:00 +21°C° 0 mm 5 mps 758 mmHg 73%
    05:00 +21°C° 0 mm 4 mps 758 mmHg 71%
    06:00 +22°C° 0 mm 4 mps 759 mmHg 63%
    07:00 +25°C° 0 mm 4 mps 759 mmHg 55%
    08:00 +26°C° 0 mm 4 mps 759 mmHg 48%
    09:00 +29°C° 0 mm 4 mps 759 mmHg 42%
    10:00 +32°C° 0 mm 4 mps 759 mmHg 36%
    11:00 +35°C° 0 mm 4 mps 759 mmHg 30%
    12:00 +35°C° 0 mm 5 mps 759 mmHg 30%
    13:00 +35°C° 0 mm 5 mps 759 mmHg 30%
    14:00 +36°C° 0 mm 6 mps 759 mmHg 30%
    15:00 +34°C° 0 mm 6 mps 759 mmHg 35%
    16:00 +33°C° 0 mm 6 mps 759 mmHg 41%
    17:00 +32°C° 0 mm 6 mps 759 mmHg 46%
    18:00 +28°C° 0 mm 6 mps 759 mmHg 56%
    19:00 +26°C° 0 mm 6 mps 759 mmHg 66%
    20:00 +23°C° 0 mm 5 mps 759 mmHg 75%
    21:00 +23°C° 0 mm 5 mps 760 mmHg 75%
    22:00 +23°C° 0 mm 5 mps 760 mmHg 75%
    23:00 +22°C° 0 mm 5 mps 760 mmHg 75%

    Day after tomorrow, 23 September, Sunday

    Time Temperature Precipitation Wind Pressure Humidity
    00:00 +22°C° 0 mm 5 mps 760 mmHg 73%
    01:00 +22°C° 0 mm 5 mps 760 mmHg 71%
    02:00 +22°C° 0 mm 5 mps 760 mmHg 70%
    03:00 +21°C° 0 mm 5 mps 760 mmHg 67%
    04:00 +21°C° 0 mm 5 mps 760 mmHg 65%
    05:00 +21°C° 0 mm 5 mps 760 mmHg 62%
    06:00 +23°C° 0 mm 5 mps 760 mmHg 55%
    07:00 +25°C° 0 mm 5 mps 760 mmHg 49%
    08:00 +27°C° 0 mm 5 mps 760 mmHg 42%
    09:00 +30°C° 0 mm 5 mps 760 mmHg 36%
    10:00 +33°C° 0 mm 5 mps 761 mmHg 30%
    11:00 +36°C° 0 mm 5 mps 761 mmHg 25%
    12:00 +37°C° 0 mm 5 mps 761 mmHg 23%
    13:00 +39°C° 0 mm 6 mps 760 mmHg 21%
    14:00 +40°C° 0 mm 6 mps 760 mmHg 19%
    15:00 +39°C° 0 mm 6 mps 760 mmHg 20%
    16:00 +38°C° 0 mm 6 mps 760 mmHg 22%
    17:00 +36°C° 0 mm 7 mps 759 mmHg 23%
    18:00 +33°C° 0 mm 7 mps 760 mmHg 28%
    19:00 +29°C° 0 mm 7 mps 760 mmHg 34%
    20:00 +27°C° 0 mm 7 mps 760 mmHg 39%
    21:00 +26°C° 0 mm 6 mps 760 mmHg 37%
    22:00 +26°C° 0 mm 6 mps 760 mmHg 35%
    23:00 +26°C° 0 mm 6 mps 760 mmHg 34%

    24 September, Monday

    Time Temperature Precipitation Wind Pressure Humidity
    00:00 +25°C° 0 mm 5 mps 760 mmHg 35%
    01:00 +25°C° 0 mm 5 mps 760 mmHg 35%
    02:00 +23°C° 0 mm 5 mps 759 mmHg 36%
    03:00 +23°C° 0 mm 4 mps 759 mmHg 37%
    04:00 +23°C° 0 mm 4 mps 759 mmHg 39%
    05:00 +22°C° 0 mm 4 mps 759 mmHg 40%
    06:00 +25°C° 0 mm 4 mps 759 mmHg 37%
    07:00 +27°C° 0 mm 3 mps 759 mmHg 34%
    08:00 +28°C° 0 mm 3 mps 759 mmHg 30%
    09:00 +31°C° 0 mm 3 mps 759 mmHg 26%
    10:00 +35°C° 0 mm 3 mps 759 mmHg 22%
    11:00 +38°C° 0 mm 2 mps 759 mmHg 17%
    12:00 +38°C° 0 mm 3 mps 758 mmHg 18%
    13:00 +38°C° 0 mm 3 mps 758 mmHg 18%
    14:00 +38°C° 0 mm 4 mps 758 mmHg 19%
    15:00 +36°C° 0 mm 4 mps 758 mmHg 22%
    16:00 +35°C° 0 mm 3 mps 757 mmHg 26%
    17:00 +34°C° 0 mm 3 mps 757 mmHg 30%
    18:00 +30°C° 0 mm 3 mps 757 mmHg 39%
    19:00 +27°C° 0 mm 2 mps 757 mmHg 47%
    20:00 +25°C° 0 mm 2 mps 758 mmHg 56%
    21:00 +24°C° 0 mm 2 mps 758 mmHg 58%
    22:00 +24°C° 0 mm 2 mps 758 mmHg 59%
    23:00 +23°C° 0 mm 2 mps 758 mmHg 61%

    25 September, Tuesday

    Time Temperature Precipitation Wind Pressure Humidity
    00:00 +23°C° 0 mm 2 mps 758 mmHg 61%
    01:00 +23°C° 0 mm 2 mps 758 mmHg 61%
    02:00 +21°C° 0 mm 2 mps 757 mmHg 62%
    03:00 +21°C° 0 mm 2 mps 757 mmHg 60%
    04:00 +21°C° 0 mm 2 mps 757 mmHg 59%
    05:00 +21°C° 0 mm 2 mps 757 mmHg 58%
    06:00 +23°C° 0 mm 2 mps 757 mmHg 52%
    07:00 +25°C° 0 mm 3 mps 757 mmHg 46%
    08:00 +27°C° 0 mm 3 mps 758 mmHg 40%
    09:00 +29°C° 0 mm 3 mps 758 mmHg 34%
    10:00 +33°C° 0 mm 4 mps 758 mmHg 29%
    11:00 +35°C° 0 mm 4 mps 758 mmHg 23%
    12:00 +36°C° 0 mm 5 mps 757 mmHg 22%
    13:00 +37°C° 0 mm 5 mps 757 mmHg 21%
    14:00 +38°C° 0 mm 6 mps 757 mmHg 20%
    15:00 +36°C° 0 mm 7 mps 757 mmHg 24%
    16:00 +35°C° 0 mm 8 mps 757 mmHg 27%
    17:00 +34°C° 0 mm 9 mps 757 mmHg 31%
    18:00 +31°C° 0 mm 10 mps 757 mmHg 41%
    19:00 +28°C° 0 mm 11 mps 758 mmHg 50%
    20:00 +24°C° 0 mm 12 mps 758 mmHg 60%
    21:00 +23°C° 0 mm 12 mps 758 mmHg 65%
    22:00 +20°C° 0 mm 13 mps 758 mmHg 71%
    23:00 +19°C° 0 mm 13 mps 759 mmHg 76%

    26 September, Wednesday

    Time Temperature Precipitation Wind Pressure Humidity
    00:00 +18°C° 0 mm 13 mps 759 mmHg 78%
    01:00 +18°C° 0 mm 13 mps 758 mmHg 79%
    02:00 +17°C° 0 mm 13 mps 758 mmHg 81%
    03:00 +17°C° 0 mm 13 mps 759 mmHg 81%
    04:00 +15°C° 0 mm 13 mps 759 mmHg 82%
    05:00 +15°C° 0 mm 13 mps 759 mmHg 83%
    06:00 +17°C° 0 mm 13 mps 759 mmHg 76%
    07:00 +18°C° 0 mm 13 mps 759 mmHg 69%
    08:00 +19°C° 0 mm 13 mps 759 mmHg 62%
    09:00 +22°C° 0 mm 13 mps 759 mmHg 54%
    10:00 +24°C° 0 mm 13 mps 759 mmHg 45%
    11:00 +27°C° 0 mm 14 mps 759 mmHg 37%
    12:00 +28°C° 0 mm 14 mps 759 mmHg 34%
    13:00 +29°C° 0 mm 13 mps 758 mmHg 32%
    14:00 +31°C° 0 mm 13 mps 758 mmHg 29%
    15:00 +29°C° 0 mm 14 mps 758 mmHg 30%
    16:00 +28°C° 0 mm 14 mps 758 mmHg 32%
    17:00 +27°C° 0 mm 15 mps 758 mmHg 33%
    18:00 +24°C° 0 mm 15 mps 758 mmHg 37%
    19:00 +22°C° 0 mm 14 mps 758 mmHg 41%
    20:00 +19°C° 0 mm 14 mps 759 mmHg 44%
    21:00 +19°C° 0 mm 14 mps 758 mmHg 47%
    22:00 +18°C° 0 mm 13 mps 758 mmHg 49%
    23:00 +17°C° 0 mm 13 mps 758 mmHg 51%
    Show more